Wind_Speed
10 17 12 6 6 6 7 8 9 9 10 8 6 8 10 10 8 5 6 9 9 10 11 11 12 13 12 13 13 14 15 13 11 10 10 10 10 11 9 8 10 13 17 18 20 22 23 24 22 19 19 23 23 23 25 24 24 24 23 23 23 22 23
9 14 12 9 8 9 6 7 7 9 12 11 6 4 5 8 9 5 10 16 14 9 9 10 12 13 12 13 12 12 13 13 11 9 8 10 11 12 10 7 10 13 15 17 17 19 22 23 22 19 19 22 23 23 24 24 24 25 25 24 23 23 23
8 8 7 7 10 16 12 2 4 6 9 9 7 2 5 8 8 5 11 16 11 7 8 11 13 13 13 14 13 11 11 11 12 11 9 8 11 12 12 11 9 9 13 16 15 15 18 18 18 19 18 21 24 22 22 24 24 24 24 24 24 24 23
8 7 5 6 8 13 12 7 6 8 7 7 7 6 5 7 5 5 9 10 5 4 8 12 13 13 13 14 13 11 11 12 10 10 11 10 11 11 8 10 11 8 9 14 16 16 16 15 18 19 17 17 20 20 19 22 23 23 24 24 24 24 24
7 6 8 10 9 10 10 7 6 9 7 5 5 7 6 7 5 4 8 7 5 5 7 11 13 12 12 14 13 12 14 14 11 9 10 12 13 9 8 9 9 10 10 8 12 16 14 15 19 20 15 15 17 17 18 19 19 21 23 23 23 24 25
6 8 12 9 5 5 8 8 8 10 9 5 5 7 9 8 5 3 8 8 6 6 6 8 11 12 13 14 14 14 16 15 12 10 9 11 14 15 12 10 7 6 9 11 9 12 12 13 17 16 12 14 16 15 16 16 16 19 22 24 23 22 24
4 5 9 5 1 5 7 8 8 8 8 8 7 6 6 7 2 6 8 7 5 5 6 8 9 12 16 16 16 17 17 15 13 12 12 12 12 15 16 14 11 7 7 12 13 12 11 12 16 15 10 10 12 15 17 18 18 19 20 22 23 21 22
1 3 4 2 4 5 6 6 5 7 9 9 7 3 4 2 5 8 6 5 6 6 7 10 11 12 15 16 16 17 17 15 14 14 14 14 14 14 15 14 13 12 10 11 13 14 15 13 9 11 11 9 9 14 19 20 22 21 20 20 22 21 21
5 5 3 4 7 5 5 7 5 7 7 4 6 5 4 3 2 5 6 4 6 7 7 10 11 11 13 14 14 15 16 16 14 14 13 14 16 16 15 14 13 13 13 13 13 13 14 14 11 9 10 9 7 8 12 16 20 21 20 19 20 22 23
5 4 2 4 7 5 5 6 5 5 5 6 6 4 3 4 4 2 7 7 7 9 8 9 10 11 12 13 13 12 13 14 14 14 13 13 15 16 16 16 15 15 14 14 14 12 11 12 12 12 11 8 6 6 6 9 13 15 16 17 18 21 22
1 0 4 5 3 5 8 10 7 4 5 7 5 4 3 2 4 6 9 13 14 13 12 11 10 11 11 12 13 13 12 12 13 14 14 14 14 15 16 17 17 18 18 17 15 12 10 9 10 11 12 11 9 6 4 7 9 9 11 14 18 20 20
3 3 5 5 4 5 11 14 8 3 5 7 6 5 4 2 5 5 9 16 17 15 14 13 12 11 10 11 13 13 12 13 13 13 14 14 14 14 16 17 18 18 19 20 19 16 12 7 6 7 8 9 10 10 6 1 5 6 7 11 16 18 19
5 2 6 5 5 8 2 5 3 1 5 7 7 8 9 5 4 8 11 13 14 14 15 14 13 12 12 12 13 13 12 13 13 13 13 14 14 14 15 16 17 18 19 19 20 21 18 11 6 4 2 1 1 3 7 5 2 4 4 6 11 14 16
4 3 5 5 5 6 4 3 2 1 4 6 7 10 9 2 10 14 14 13 12 12 13 14 13 14 14 13 13 13 13 13 13 12 13 13 13 14 15 15 16 17 18 19 19 20 20 16 12 10 7 3 3 5 2 2 1 1 1 3 6 10 11
5 5 5 5 6 5 4 4 3 1 5 7 5 6 5 2 11 15 16 16 11 10 14 15 14 14 13 13 12 12 12 13 13 12 12 12 13 14 14 15 15 16 17 18 19 19 20 18 16 14 15 14 9 2 3 2 1 3 2 2 3 4 6
6 7 8 8 8 6 7 10 6 4 8 7 4 5 5 5 12 15 15 13 9 9 15 16 14 13 13 13 13 11 9 9 12 14 13 12 12 13 14 14 15 15 16 17 18 18 17 18 17 16 16 16 15 13 10 7 6 4 2 2 3 3 5
7 9 8 7 7 7 8 10 9 8 8 7 6 7 3 6 14 14 10 10 10 12 14 13 12 13 12 12 12 10 9 9 10 11 12 12 12 12 13 14 14 15 15 15 16 16 16 16 16 15 16 16 16 16 15 14 13 9 5 4 4 4 6
7 10 6 4 6 7 4 4 7 11 11 10 10 6 4 5 8 11 10 11 13 13 13 13 14 13 12 13 14 11 8 7 9 9 8 10 11 11 12 13 13 14 15 15 15 16 15 15 14 14 15 16 15 15 16 15 15 14 11 8 7 6 5
7 7 3 5 6 4 1 4 3 3 7 8 4 7 9 6 8 14 14 14 15 15 14 15 16 17 15 13 14 12 8 6 8 7 6 7 9 9 11 12 12 13 14 15 15 15 15 14 14 14 15 15 14 14 14 14 14 15 13 11 10 9 9
5 5 6 5 2 1 4 5 5 4 4 4 6 10 9 6 9 14 15 14 14 16 17 16 16 17 15 12 10 10 6 2 5 7 6 7 8 9 10 11 12 12 13 13 14 14 14 13 14 14 14 15 14 14 14 14 14 14 14 14 14 13 14
5 7 7 4 1 2 3 4 3 2 3 4 5 6 6 6 8 12 14 14 14 15 18 19 18 18 16 11 9 12 10 4 3 5 6 5 6 8 8 9 11 11 12 12 13 13 12 12 14 14 14 14 14 14 14 15 14 14 14 15 17 17 16
5 6 7 6 5 5 6 7 6 4 3 1 2 5 7 8 11 13 13 14 15 16 17 19 19 17 12 7 8 13 14 9 4 4 5 5 5 7 7 8 10 11 12 12 11 12 12 12 13 14 13 13 14 14 15 15 15 15 15 16 17 17 17
5 5 6 6 6 3 2 8 8 4 3 6 4 4 6 8 13 16 15 14 15 16 16 18 17 12 7 6 7 10 12 9 6 4 3 4 5 5 6 8 9 10 12 11 10 11 12 12 13 14 12 11 12 14 15 16 15 15 17 17 17 17 16
6 6 5 5 3 2 6 10 8 7 8 8 3 5 6 11 15 15 15 14 12 10 9 13 10 4 4 7 9 9 9 7 5 3 2 3 4 5 6 7 8 9 10 10 10 11 12 12 13 12 11 11 11 13 15 14 14 15 17 18 19 18 17
7 6 6 4 1 5 8 10 10 10 8 6 5 3 5 14 16 12 12 13 9 7 7 9 9 9 11 11 9 9 7 5 3 2 1 1 3 4 6 7 8 7 8 9 10 11 11 12 12 12 12 13 14 15 14 12 12 13 16 19 21 20 19
6 6 6 4 3 5 7 10 11 9 4 3 3 4 6 12 14 11 10 8 11 12 11 11 10 10 12 10 7 7 6 3 2 1 0 1 2 5 6 7 6 6 7 8 9 10 11 11 11 12 14 14 15 15 13 12 12 12 14 18 21 22 21
6 6 7 5 3 5 9 10 7 3 0 3 8 10 10 10 9 8 10 11 12 9 8 9 8 7 8 7 6 6 4 2 2 1 2 3 4 5 6 6 7 8 7 8 9 10 11 11 11 12 13 13 13 13 12 11 11 12 13 15 18 20 20
4 5 4 1 2 7 9 8 6 7 8 10 11 11 11 11 9 8 10 12 10 6 5 5 4 3 4 5 5 5 3 2 2 3 4 5 5 5 6 7 8 8 8 9 10 10 10 11 11 11 12 12 12 12 12 11 11 11 12 13 14 15 17
2 1 2 2 5 9 10 9 11 14 14 11 9 10 10 11 10 9 11 14 12 7 5 3 2 1 2 3 3 4 2 2 3 4 4 5 5 6 7 8 9 9 10 10 11 11 11 12 12 11 11 12 13 13 13 13 12 11 11 12 12 14 17
1 3 5 7 7 8 11 12 12 13 12 9 8 7 8 10 11 9 10 15 14 9 5 3 2 2 2 2 2 1 1 2 3 4 4 5 6 7 8 9 10 10 11 11 12 12 13 13 13 13 13 13 13 14 14 14 13 12 11 12 12 14 15
2 3 6 8 8 8 10 11 10 10 9 7 6 5 6 11 12 9 8 11 12 9 6 4 3 3 2 2 1 1 2 2 3 4 5 6 7 8 8 10 10 10 10 11 13 14 14 14 14 14 14 14 14 14 14 14 13 13 12 12 12 12 13
4 2 5 7 7 8 9 8 9 10 9 7 6 5 7 11 11 9 9 9 8 8 7 6 5 4 3 2 1 0 1 2 4 5 6 7 8 8 9 10 10 10 10 11 12 14 15 16 16 16 15 15 15 15 15 14 14 14 13 12 12 12 13
6 4 7 8 6 5 7 9 9 11 13 14 11 8 9 9 9 8 7 6 5 6 6 6 5 4 3 2 1 1 2 3 4 5 6 8 9 10 10 10 10 10 10 11 12 13 15 16 17 18 17 16 16 16 16 15 15 15 14 13 12 13 13
3 2 1 4 4 4 6 9 10 9 13 16 15 11 9 8 7 7 6 6 5 5 5 5 5 4 4 3 2 2 2 4 5 6 7 8 9 10 10 10 10 10 10 11 12 13 14 15 16 17 18 18 17 16 16 15 15 15 15 14 14 13 13
2 5 9 6 4 4 1 5 7 7 8 11 13 13 10 9 8 8 7 7 7 6 5 6 6 5 4 4 3 3 4 4 5 6 8 8 9 10 10 10 10 10 11 12 12 13 15 15 14 15 15 16 17 17 16 16 16 15 14 15 15 14 14
2 1 4 4 4 3 2 1 5 7 7 8 10 11 10 10 10 10 10 9 7 6 5 6 7 7 7 7 5 5 5 5 5 7 7 8 9 9 9 9 10 11 11 12 13 13 15 16 15 14 13 14 14 16 16 16 16 15 15 15 15 14 13
4 2 0 0 2 3 2 2 5 8 8 9 10 10 11 11 11 11 12 12 11 9 6 5 7 8 7 6 5 5 6 6 6 7 7 7 8 8 8 9 10 11 11 13 14 13 14 16 16 13 13 15 14 12 13 14 13 13 14 13 13 13 12
Wind_Direction
211 209 227 232 222 216 196 211 224 232 245 243 235 231 219 211 208 185 126 113 117 127 132 132 123 117 115 102 93 97 98 99 108 110 120 135 141 148 152 151 161 180 194 194 189 188 192 192 194 205 212 204 200 203 206 207 208 209 209 209 208 207 210
200 202 229 224 220 250 224 187 219 238 249 255 247 254 259 226 207 180 133 136 143 146 139 139 134 122 108 96 87 86 85 86 92 92 102 119 119 112 105 122 163 181 187 181 180 185 187 187 191 205 214 206 203 205 208 210 209 211 213 212 210 208 208
178 180 245 239 223 245 248 270 307 256 241 244 221 217 287 239 206 158 138 142 144 147 144 145 140 123 106 97 90 81 65 61 70 60 56 98 118 106 85 79 116 165 177 175 182 188 184 180 185 199 207 205 204 204 207 210 210 212 214 211 212 212 211
174 164 217 227 218 240 255 284 286 247 247 261 221 202 251 249 219 153 146 143 122 121 138 137 127 115 107 98 91 88 72 53 53 47 39 61 98 119 118 86 83 110 153 174 186 187 186 192 197 200 203 203 203 203 207 212 213 213 212 210 212 214 214
170 168 208 218 209 215 228 236 235 223 227 264 243 211 220 253 256 178 146 129 103 106 117 118 113 106 103 101 95 93 85 68 54 47 41 46 55 77 131 128 99 96 108 142 183 186 191 209 209 202 201 201 200 201 205 209 212 216 216 212 213 217 217
199 196 195 204 219 225 223 218 224 224 211 220 245 219 210 235 260 166 140 127 110 111 111 114 115 109 104 106 105 98 90 83 71 57 45 39 40 48 75 101 102 103 101 96 124 165 184 206 208 201 199 203 201 202 205 207 210 216 218 216 214 217 220
215 185 166 168 294 312 284 240 224 222 208 210 225 225 226 227 168 106 128 131 118 129 126 116 115 114 110 108 108 104 95 91 88 77 63 53 48 48 58 71 76 87 108 101 106 133 155 180 199 198 193 202 207 208 206 205 211 217 218 217 215 216 219
172 130 134 208 251 290 282 236 223 234 222 220 234 288 325 267 130 109 118 126 135 150 129 116 117 116 114 112 110 109 105 99 89 81 74 67 61 58 61 66 70 73 85 100 114 127 130 133 163 185 185 191 207 216 213 208 212 217 215 214 215 216 217
203 182 170 222 227 252 249 204 209 250 251 287 317 334 342 301 208 137 129 117 137 147 130 129 136 128 117 112 109 107 107 106 99 87 80 75 71 70 72 71 66 69 76 84 95 112 124 119 107 121 151 161 167 194 212 212 211 210 208 211 216 217 218
208 192 231 236 207 213 247 228 229 259 278 310 320 319 296 286 307 94 122 125 136 142 144 148 144 131 117 108 105 102 97 98 99 95 87 80 75 71 72 71 66 65 71 75 77 88 111 121 111 106 111 113 121 143 169 195 205 208 210 214 215 213 215
337 49 306 294 204 191 223 231 236 258 276 276 274 291 308 4 44 70 120 139 144 148 155 152 137 127 120 113 112 112 108 103 98 95 92 85 79 71 66 67 63 59 60 62 64 72 89 110 120 115 102 88 82 93 138 176 187 202 220 221 214 210 211
293 355 330 319 335 284 227 212 210 222 259 275 274 256 264 16 58 90 137 145 147 153 155 145 132 127 122 119 120 116 112 110 102 98 93 85 79 74 65 61 59 56 54 52 51 52 56 75 115 126 114 92 74 61 49 198 200 192 207 217 217 218 219
217 305 316 294 320 332 300 165 149 213 236 257 269 255 265 312 73 135 154 150 145 147 146 139 139 139 128 123 125 117 108 104 100 94 87 79 74 72 67 59 55 54 52 50 49 45 44 48 66 108 149 237 267 43 38 22 267 210 200 218 221 221 225
228 245 284 280 293 333 12 109 125 334 264 248 251 256 270 350 109 137 150 145 138 136 135 134 135 132 123 119 120 115 107 103 97 87 80 78 73 67 65 60 54 53 50 49 49 47 43 45 57 71 67 49 241 246 299 19 55 168 195 262 238 224 234
283 241 235 259 274 297 306 258 217 246 271 265 267 259 260 109 120 138 142 136 131 132 131 126 120 121 125 128 127 124 123 118 108 95 77 70 68 64 62 58 53 51 49 46 47 48 45 42 46 52 51 53 61 36 308 304 66 92 102 308 274 235 261
273 246 214 225 248 257 268 262 244 224 239 247 250 241 238 150 134 143 147 141 135 141 137 128 125 136 142 137 126 115 110 107 106 106 92 71 61 59 58 55 51 49 47 43 42 44 46 44 42 41 40 42 46 40 28 22 23 43 66 337 302 260 269
264 249 217 217 241 238 245 251 239 226 231 239 233 225 216 131 143 151 155 145 137 143 145 140 145 152 148 136 121 98 78 70 70 84 88 75 60 56 56 53 49 46 43 41 39 37 40 43 42 41 38 37 37 33 29 26 18 11 15 5 334 294 276
267 258 218 193 233 234 243 257 233 219 214 226 231 196 100 88 139 143 139 141 145 149 153 155 152 138 122 121 117 106 105 98 74 67 75 72 62 56 56 53 49 45 40 36 35 34 35 38 38 38 37 37 37 34 33 30 20 10 9 16 16 3 336
270 273 215 200 231 238 12 27 4 227 207 215 203 116 93 86 124 131 134 144 153 158 163 161 145 126 119 126 125 120 130 133 116 108 90 72 67 60 55 54 52 45 37 32 29 28 29 30 31 32 32 32 34 34 34 34 27 18 13 17 23 25 23
253 255 223 217 233 96 77 57 42 45 80 109 110 102 92 94 127 136 143 151 156 157 155 147 134 127 129 132 130 134 137 129 135 128 96 69 69 62 51 53 51 41 33 30 26 24 23 23 25 26 24 25 29 31 30 30 28 21 16 20 27 29 29
234 246 233 208 151 177 169 131 117 107 86 97 130 131 118 122 138 142 147 154 154 148 143 141 140 141 140 137 152 161 150 120 118 120 95 70 63 56 47 48 46 32 25 27 23 21 20 17 18 20 16 15 18 21 24 24 22 17 14 18 21 21 23
213 244 248 222 214 234 208 163 158 201 217 153 143 157 151 151 153 150 151 155 156 155 153 152 152 149 139 140 173 168 148 130 126 118 94 70 57 51 40 40 36 20 18 23 20 17 14 7 13 18 12 8 11 10 11 16 15 6 3 8 12 12 13
221 231 250 229 224 262 158 141 141 162 139 94 102 187 186 168 164 165 166 166 172 175 160 146 153 165 157 143 158 160 149 140 137 120 81 47 43 42 33 32 26 14 15 18 13 12 5 357 7 13 5 5 12 6 2 8 7 355 351 355 1 4 6
242 232 237 233 225 90 113 124 124 120 109 106 156 221 187 168 170 174 176 177 188 201 166 132 135 161 139 133 142 144 146 150 145 122 77 34 27 30 25 19 12 10 14 11 6 6 360 352 359 2 351 349 355 355 357 2 2 353 346 344 346 351 357
239 236 238 233 113 109 133 136 130 127 124 150 204 223 148 158 161 166 182 178 162 165 153 115 96 92 99 115 137 136 129 144 161 146 100 44 24 20 19 15 11 10 10 4 1 360 355 353 353 345 331 325 328 337 348 354 354 349 340 337 338 341 346
239 242 239 220 131 122 143 138 130 136 158 191 157 93 114 146 150 157 172 139 100 109 115 92 86 107 113 115 131 134 125 135 166 169 112 60 29 20 19 19 20 19 9 360 357 354 351 351 346 334 326 326 329 334 339 343 343 339 335 335 336 335 338
237 238 234 221 165 150 157 149 133 122 260 119 110 101 103 116 127 142 137 107 91 104 113 93 90 116 118 107 111 124 130 143 155 124 80 59 35 22 20 15 13 15 8 354 347 344 343 343 341 338 335 333 334 335 333 334 334 331 330 333 333 332 335
244 232 232 239 145 142 146 145 116 92 103 116 118 115 113 112 113 116 115 111 106 99 104 115 123 126 121 117 117 122 132 127 90 69 53 41 25 17 13 4 359 359 355 347 341 337 336 337 338 340 338 332 330 329 326 323 324 324 325 328 329 328 328
324 81 99 113 147 138 118 103 100 107 116 119 112 116 128 133 138 139 128 122 120 114 117 134 156 157 132 121 120 122 120 90 59 38 27 24 18 9 1 355 353 350 344 340 338 336 336 335 333 330 329 326 326 326 322 319 319 320 321 320 319 321 324
117 118 117 117 134 136 120 115 114 115 120 123 118 129 140 133 135 147 140 131 134 143 151 154 200 201 155 125 132 123 64 37 31 20 13 10 5 360 356 352 349 346 340 337 335 334 334 334 332 328 325 323 323 323 323 323 322 318 314 310 307 311 319
179 165 157 154 162 154 136 137 139 128 120 121 129 148 138 123 123 128 129 132 139 145 153 174 201 196 172 152 146 100 25 359 359 0 359 358 356 353 351 349 347 345 342 336 333 331 331 332 332 329 326 324 321 317 316 318 317 311 304 302 302 305 310
220 168 144 153 165 162 160 165 161 150 142 131 120 123 128 124 124 124 123 133 148 156 170 187 187 174 166 154 133 74 348 347 349 347 344 345 345 343 342 343 343 342 339 333 331 330 329 328 327 326 324 321 318 315 314 315 315 312 307 301 300 302 304
216 169 145 151 156 170 192 202 193 175 164 151 137 133 136 131 126 128 133 146 166 171 171 168 164 168 167 149 132 290 312 327 329 330 331 332 332 335 337 337 336 334 331 331 331 329 328 327 325 323 321 318 317 316 315 314 313 311 310 307 301 298 299
231 331 21 168 188 208 202 208 214 196 167 156 153 156 167 172 167 162 162 160 155 156 162 165 173 188 191 187 212 270 292 299 306 316 324 325 326 329 330 329 330 331 329 329 330 328 327 326 325 323 322 321 321 318 314 313 314 312 310 309 303 297 296
231 341 0 6 332 316 218 201 215 196 162 160 160 157 168 188 186 178 184 183 173 170 176 183 192 204 215 218 225 246 266 276 291 304 311 316 319 321 324 324 326 327 327 329 332 333 331 324 318 318 323 324 321 318 313 310 309 308 306 305 302 295 293
236 329 24 24 346 337 23 200 212 191 176 178 171 161 170 187 190 189 189 187 193 203 198 198 212 220 224 228 230 239 257 271 283 292 300 307 309 313 318 321 322 324 328 329 330 331 333 328 321 322 329 329 320 315 314 310 307 305 302 303 304 297 287
278 263 107 187 270 290 291 214 196 188 185 186 186 187 189 193 204 209 192 178 188 206 207 209 214 204 194 206 233 247 253 261 273 284 293 300 303 308 315 318 321 325 327 326 322 324 329 330 330 335 339 331 321 314 308 302 299 300 298 296 298 290 278
Height
1456 1458 1456 1451 1457 1463 1464 1466 1471 1466 1452 1454 1469 1471 1461 1462 1478 1481 1480 1494 1498 1496 1503 1498 1495 1501 1500 1502 1507 1507 1510 1512 1512 1515 1516 1518 1520 1520 1521 1522 1522 1525 1526 1528 1530 1531 1533 1535 1539 1542 1545 1547 1547 1547 1547 1548 1550 1551 1552 1554 1555 1556 1558
1458 1454 1457 1454 1455 1459 1463 1471 1470 1460 1454 1455 1463 1476 1477 1472 1480 1485 1484 1497 1504 1506 1512 1505 1499 1504 1505 1505 1509 1510 1512 1513 1514 1517 1517 1519 1521 1522 1523 1522 1522 1524 1526 1528 1530 1531 1532 1533 1536 1540 1544 1546 1547 1547 1547 1548 1549 1550 1551 1553 1554 1556 1557
1460 1456 1463 1465 1459 1455 1457 1461 1460 1462 1471 1470 1464 1480 1494 1484 1481 1494 1498 1496 1500 1505 1508 1505 1503 1506 1509 1510 1512 1515 1516 1515 1518 1519 1520 1521 1522 1523 1524 1522 1523 1524 1526 1529 1531 1532 1533 1533 1535 1539 1543 1545 1545 1546 1546 1547 1549 1549 1551 1552 1553 1555 1556
1461 1463 1470 1475 1470 1460 1457 1459 1460 1461 1467 1467 1462 1469 1480 1479 1481 1499 1511 1510 1510 1505 1499 1500 1505 1507 1510 1513 1514 1518 1520 1521 1522 1523 1523 1523 1524 1524 1524 1523 1524 1524 1525 1528 1530 1532 1533 1534 1536 1539 1542 1543 1543 1545 1546 1546 1548 1549 1550 1552 1553 1554 1556
1465 1472 1472 1470 1469 1466 1465 1467 1468 1465 1460 1458 1459 1461 1463 1472 1480 1492 1511 1526 1520 1503 1496 1500 1505 1507 1511 1513 1515 1518 1522 1524 1526 1526 1526 1526 1527 1526 1525 1524 1524 1525 1527 1528 1529 1530 1532 1534 1536 1538 1540 1542 1542 1544 1545 1545 1547 1548 1550 1552 1553 1555 1556
1470 1469 1462 1458 1460 1461 1462 1464 1463 1460 1458 1462 1472 1473 1462 1462 1473 1481 1503 1530 1524 1501 1498 1502 1503 1507 1511 1512 1515 1519 1523 1527 1529 1529 1529 1528 1528 1528 1526 1525 1525 1525 1526 1526 1527 1529 1532 1534 1536 1537 1540 1540 1541 1542 1543 1544 1546 1547 1549 1551 1553 1555 1556
1465 1459 1454 1455 1457 1457 1457 1458 1455 1453 1456 1463 1474 1481 1469 1463 1474 1478 1491 1522 1524 1503 1497 1501 1502 1506 1509 1511 1515 1519 1523 1528 1531 1532 1531 1530 1530 1529 1529 1528 1528 1527 1525 1525 1526 1528 1530 1533 1535 1536 1538 1539 1539 1539 1541 1542 1544 1545 1547 1549 1551 1553 1555
1462 1458 1457 1457 1457 1460 1462 1459 1454 1453 1455 1456 1462 1470 1470 1471 1483 1487 1496 1522 1525 1504 1498 1503 1504 1506 1508 1512 1516 1519 1524 1528 1530 1533 1533 1533 1532 1531 1531 1531 1531 1531 1531 1530 1531 1532 1531 1532 1533 1535 1536 1537 1538 1537 1538 1540 1541 1543 1545 1546 1547 1550 1553
1480 1475 1474 1472 1467 1466 1466 1461 1458 1457 1456 1458 1464 1468 1471 1477 1481 1483 1502 1528 1525 1506 1502 1505 1505 1507 1509 1513 1517 1520 1523 1527 1530 1533 1534 1535 1535 1534 1534 1534 1533 1533 1534 1534 1535 1534 1532 1531 1533 1535 1535 1537 1537 1536 1536 1538 1539 1541 1543 1543 1545 1548 1552
1497 1496 1493 1483 1472 1469 1467 1462 1461 1462 1462 1467 1473 1473 1479 1485 1479 1479 1502 1524 1521 1509 1508 1508 1507 1509 1512 1515 1519 1522 1524 1527 1530 1532 1534 1535 1535 1536 1536 1535 1535 1534 1534 1534 1534 1533 1532 1532 1533 1534 1534 1536 1536 1536 1536 1537 1539 1541 1542 1544 1544 1546 1549
1492 1494 1489 1473 1466 1471 1474 1470 1468 1467 1468 1470 1474 1480 1486 1485 1485 1495 1504 1509 1513 1513 1512 1511 1512 1513 1515 1518 1522 1525 1526 1528 1529 1531 1534 1535 1535 1536 1536 1535 1536 1535 1534 1534 1533 1532 1532 1532 1533 1534 1533 1534 1535 1536 1536 1537 1538 1540 1541 1543 1543 1544 1546
1484 1483 1480 1471 1469 1473 1472 1470 1470 1471 1473 1473 1475 1484 1484 1477 1492 1513 1509 1500 1509 1514 1510 1512 1515 1516 1519 1521 1523 1526 1527 1528 1529 1531 1533 1534 1535 1536 1536 1536 1536 1535 1535 1534 1533 1532 1532 1532 1533 1533 1533 1534 1534 1535 1537 1537 1537 1538 1539 1540 1541 1543 1544
1481 1480 1480 1476 1476 1475 1469 1469 1474 1475 1477 1478 1479 1482 1477 1474 1492 1513 1510 1504 1509 1510 1509 1513 1515 1516 1520 1522 1523 1527 1528 1529 1530 1531 1533 1534 1535 1536 1536 1536 1536 1536 1536 1536 1534 1534 1533 1532 1532 1533 1534 1535 1536 1538 1540 1540 1539 1538 1539 1539 1540 1542 1544
1480 1481 1482 1479 1478 1479 1476 1477 1479 1480 1479 1479 1479 1479 1475 1476 1490 1501 1505 1510 1512 1510 1511 1514 1516 1518 1521 1523 1525 1527 1529 1531 1532 1533 1534 1535 1536 1537 1537 1537 1537 1537 1537 1537 1537 1536 1535 1534 1534 1535 1537 1537 1537 1539 1543 1544 1541 1539 1540 1540 1539 1540 1542
1488 1483 1483 1483 1482 1483 1483 1482 1480 1482 1484 1481 1480 1479 1476 1483 1495 1499 1503 1513 1516 1513 1513 1516 1520 1523 1523 1525 1527 1528 1530 1532 1533 1535 1537 1537 1538 1539 1538 1539 1539 1538 1538 1538 1538 1538 1538 1537 1535 1536 1538 1539 1539 1541 1545 1545 1541 1540 1540 1540 1539 1539 1539
1497 1484 1483 1486 1483 1483 1488 1486 1482 1484 1486 1484 1483 1482 1479 1486 1499 1504 1509 1517 1519 1516 1516 1519 1523 1525 1525 1527 1528 1529 1531 1532 1533 1536 1538 1540 1541 1540 1540 1540 1540 1540 1540 1540 1540 1540 1541 1540 1539 1537 1538 1539 1540 1542 1544 1543 1540 1539 1540 1539 1539 1540 1539
1499 1484 1482 1484 1485 1493 1497 1488 1482 1484 1485 1484 1483 1481 1480 1485 1495 1505 1513 1517 1517 1516 1517 1521 1524 1525 1526 1527 1529 1531 1533 1533 1535 1536 1538 1541 1542 1541 1541 1541 1541 1541 1541 1541 1541 1542 1542 1542 1542 1541 1541 1541 1541 1541 1541 1540 1539 1539 1539 1539 1539 1540 1541
1500 1485 1479 1485 1497 1507 1499 1480 1474 1478 1481 1483 1483 1483 1485 1490 1494 1501 1508 1512 1514 1516 1518 1520 1523 1526 1527 1529 1531 1533 1535 1536 1538 1539 1540 1542 1543 1543 1543 1542 1542 1542 1542 1542 1543 1543 1543 1544 1543 1543 1543 1542 1542 1542 1542 1542 1541 1540 1539 1539 1540 1541 1542
1498 1487 1486 1503 1513 1504 1486 1475 1474 1475 1475 1477 1480 1485 1490 1494 1497 1503 1508 1511 1513 1515 1517 1519 1522 1526 1529 1531 1533 1535 1537 1538 1539 1540 1542 1544 1544 1544 1544 1544 1543 1543 1543 1543 1543 1543 1544 1544 1543 1544 1543 1543 1543 1544 1543 1544 1543 1541 1541 1540 1541 1541 1542
1498 1495 1498 1511 1510 1492 1482 1484 1482 1478 1479 1481 1486 1496 1500 1498 1500 1505 1509 1512 1513 1514 1516 1520 1523 1527 1530 1532 1534 1536 1538 1538 1538 1540 1543 1544 1545 1545 1545 1545 1544 1544 1544 1544 1544 1544 1545 1544 1544 1544 1544 1543 1544 1544 1544 1544 1544 1543 1542 1541 1541 1541 1542
1499 1500 1498 1499 1501 1496 1491 1491 1488 1485 1487 1488 1492 1503 1507 1502 1502 1506 1510 1513 1514 1514 1518 1522 1525 1528 1530 1533 1535 1536 1538 1539 1539 1541 1543 1545 1546 1545 1546 1545 1545 1544 1544 1544 1545 1545 1545 1545 1544 1544 1544 1544 1543 1543 1543 1544 1544 1543 1542 1542 1542 1542 1542
1496 1500 1500 1498 1505 1507 1496 1490 1489 1488 1488 1489 1490 1500 1508 1506 1505 1507 1510 1513 1515 1515 1518 1521 1525 1528 1532 1535 1535 1534 1536 1540 1541 1543 1544 1546 1546 1546 1546 1546 1545 1545 1545 1545 1545 1546 1546 1545 1545 1545 1545 1545 1544 1543 1543 1543 1543 1543 1542 1542 1542 1543 1543
1495 1501 1505 1502 1505 1504 1492 1487 1490 1490 1491 1491 1494 1504 1510 1505 1504 1508 1510 1512 1513 1513 1516 1520 1522 1527 1533 1536 1535 1533 1536 1540 1543 1544 1546 1546 1546 1546 1546 1545 1545 1545 1545 1545 1546 1546 1546 1545 1545 1546 1546 1545 1544 1544 1543 1543 1544 1543 1542 1543 1543 1543 1543
1496 1499 1502 1497 1497 1498 1491 1490 1492 1493 1493 1495 1504 1516 1513 1501 1502 1507 1508 1510 1512 1512 1515 1520 1521 1524 1530 1533 1535 1536 1538 1541 1543 1545 1546 1546 1547 1547 1546 1545 1545 1545 1546 1546 1546 1547 1546 1545 1546 1546 1545 1545 1545 1545 1544 1545 1544 1543 1543 1543 1543 1543 1543
1496 1498 1499 1496 1496 1496 1492 1491 1494 1495 1497 1502 1512 1517 1507 1497 1503 1507 1506 1510 1514 1514 1516 1520 1523 1527 1530 1533 1537 1538 1539 1541 1543 1545 1546 1547 1547 1547 1546 1546 1545 1546 1546 1546 1546 1547 1546 1546 1546 1545 1545 1544 1544 1544 1545 1545 1545 1544 1544 1543 1542 1543 1543
1495 1494 1495 1500 1503 1498 1492 1494 1496 1497 1502 1508 1511 1509 1503 1502 1506 1507 1508 1512 1515 1517 1520 1523 1527 1531 1532 1536 1538 1538 1540 1543 1544 1545 1546 1546 1547 1546 1546 1546 1546 1546 1546 1546 1546 1546 1546 1546 1546 1545 1544 1544 1544 1544 1545 1545 1545 1545 1544 1543 1542 1542 1542
1495 1494 1495 1503 1506 1499 1493 1497 1499 1500 1505 1509 1508 1506 1507 1508 1508 1508 1512 1516 1518 1522 1524 1527 1531 1533 1534 1537 1539 1539 1542 1544 1544 1545 1546 1545 1546 1546 1546 1546 1546 1545 1545 1546 1546 1545 1545 1545 1545 1544 1544 1544 1544 1544 1544 1545 1545 1545 1544 1543 1542 1542 1542
1493 1498 1501 1503 1501 1496 1495 1499 1502 1503 1507 1508 1508 1509 1510 1511 1512 1513 1516 1519 1522 1525 1528 1530 1534 1535 1536 1538 1539 1540 1542 1543 1544 1545 1544 1544 1545 1545 1545 1545 1544 1544 1545 1545 1545 1545 1545 1544 1544 1544 1544 1544 1543 1544 1544 1544 1544 1544 1544 1544 1543 1542 1541
1493 1498 1501 1499 1497 1496 1499 1503 1504 1506 1508 1509 1510 1511 1512 1514 1516 1517 1519 1522 1525 1529 1531 1533 1535 1535 1536 1538 1538 1540 1542 1542 1543 1544 1543 1544 1544 1544 1544 1544 1543 1542 1543 1543 1544 1544 1543 1543 1543 1543 1543 1543 1542 1542 1542 1542 1542 1543 1543 1543 1543 1542 1541
1495 1498 1498 1498 1499 1499 1501 1505 1507 1509 1511 1511 1512 1513 1514 1515 1517 1519 1521 1524 1527 1530 1533 1534 1535 1535 1536 1537 1538 1539 1540 1541 1542 1543 1543 1543 1543 1542 1543 1542 1541 1541 1541 1541 1542 1542 1542 1542 1542 1541 1541 1541 1541 1541 1541 1541 1541 1541 1542 1542 1542 1541 1541
1498 1500 1498 1497 1499 1501 1502 1506 1508 1509 1512 1514 1515 1515 1516 1517 1520 1521 1523 1524 1527 1530 1532 1534 1535 1535 1535 1537 1538 1538 1539 1540 1541 1541 1541 1541 1541 1542 1542 1541 1541 1541 1540 1540 1540 1540 1540 1540 1540 1540 1540 1540 1539 1540 1539 1539 1539 1539 1539 1540 1540 1540 1540
1497 1499 1497 1497 1500 1501 1503 1505 1507 1509 1513 1515 1516 1517 1518 1519 1521 1523 1524 1526 1528 1530 1532 1533 1534 1535 1535 1536 1537 1538 1539 1539 1539 1540 1540 1540 1540 1540 1540 1540 1540 1540 1540 1540 1539 1539 1538 1538 1538 1538 1538 1538 1538 1538 1537 1537 1537 1537 1537 1538 1538 1538 1539
1494 1496 1497 1499 1502 1503 1504 1505 1506 1508 1511 1514 1516 1518 1520 1521 1523 1525 1526 1528 1529 1530 1531 1532 1533 1534 1535 1536 1536 1537 1538 1538 1539 1539 1539 1539 1539 1539 1539 1540 1540 1540 1540 1540 1539 1538 1538 1537 1536 1536 1535 1535 1536 1535 1535 1536 1535 1535 1535 1535 1536 1536 1537
1501 1501 1501 1501 1503 1504 1504 1505 1506 1507 1510 1512 1514 1517 1520 1522 1524 1525 1527 1528 1529 1530 1531 1532 1533 1534 1535 1535 1536 1537 1537 1538 1538 1538 1538 1539 1539 1538 1539 1539 1539 1539 1539 1538 1538 1538 1537 1536 1535 1534 1533 1533 1533 1533 1534 1534 1534 1534 1534 1534 1534 1535 1535
1509 1508 1505 1503 1504 1505 1505 1505 1507 1508 1510 1511 1513 1515 1518 1521 1523 1525 1526 1527 1528 1530 1531 1532 1533 1534 1534 1535 1536 1536 1537 1538 1538 1538 1538 1538 1538 1538 1538 1538 1538 1538 1538 1537 1537 1537 1536 1535 1534 1533 1532 1532 1532 1532 1532 1532 1532 1532 1532 1532 1532 1532 1533
1510 1508 1507 1506 1507 1508 1508 1508 1508 1509 1510 1511 1513 1515 1517 1520 1522 1523 1525 1526 1528 1529 1530 1530 1531 1532 1533 1534 1534 1535 1536 1537 1538 1538 1538 1538 1538 1538 1537 1537 1537 1537 1536 1536 1536 1535 1535 1534 1533 1532 1531 1531 1531 1530 1530 1530 1530 1530 1530 1530 1530 1530 1530
1509 1509 1508 1507 1507 1508 1509 1509 1509 1509 1510 1511 1512 1514 1517 1519 1520 1521 1522 1523 1526 1527 1528 1529 1530 1530 1531 1532 1533 1535 1536 1537 1537 1537 1537 1537 1537 1537 1537 1537 1536 1536 1535 1535 1534 1534 1533 1533 1532 1531 1531 1530 1529 1528 1528 1528 1527 1527 1527 1527 1528 1527 1527